Weather History for KPKB - May, 2013

Change the Weather History Date:

Friday, May 3, 2013

  Actual Average Record
Temperature  
Mean Temperature 65 °F 59 °F  
Max Temperature 80 °F 71 °F 90 °F (1959)
Min Temperature 49 °F 47 °F 30 °F (1978)
Degree Days  
Heating Degree Days 0 7  
Month to date heating degree days 0 21  
Cooling Degree Days 0 1  
Month to date cooling degree days 1 3  
Year to date cooling degree days 30 24  
Growing Degree Days 14 (Base 50)    
Moisture  
Dew Point 39 °F    
Average Humidity 55    
Maximum Humidity 93    
Minimum Humidity 17    
Precipitation  
Precipitation 0.00 in 0.12 in 0.86 in (1979)
Month to date precipitation 0.00 0.36  
Year to date precipitation 9.83 13.01  
Sea Level Pressure  
Sea Level Pressure 30.16 in    
Wind  
Wind Speed 7 mph (SE)    
Max Wind Speed 20 mph    
Max Gust Speed 28 mph    
Visibility 10 miles    
Events      
T = Trace of Precipitation, MM = Missing Value Source: NWS Daily Summary

Daily Weather History Graph

Daily Weather History Graph

Search for Another Location

Airport or City:

Trip Planner

Search our weather history database for the weather conditions in past years. The results will help you decide how hot, cold, wet, or windy it might be!

Date:

Astronomy

May. 03, 2013 Rise Set
Actual Time 6:24 AM EDT 8:21 PM EDT
Civil Twilight 5:55 AM EDT 8:50 PM EDT
Nautical Twilight 5:19 AM EDT 9:26 PM EDT
Astronomical Twilight 4:41 AM EDT 10:04 PM EDT
Moon 2:45 AM EDT (5/3) 2:16 PM EDT (5/3)
Length of Visible Light 14h 55m
Length of Day
13h 57m
Last Quarter, 37% of the Moon is Illuminated
May 3
Last Quarter
May 9
New
May 18
First Quarter
May 25
Full
May 31
Last Quarter

Hourly Weather History & Observations

Time (EDT) Temp. Dew Point Humidity Pressure Visibility Wind Dir Wind Speed Gust Speed Precip Events Conditions
12:53 AM 64.9 °F 48.9 °F 56% 30.19 in 10.0 mi South 5.8 mph - N/A   Clear
1:53 AM 64.0 °F 46.0 °F 52% 30.19 in 10.0 mi South 8.1 mph - N/A   Partly Cloudy
2:53 AM 63.0 °F 46.0 °F 54% 30.19 in 10.0 mi SE 4.6 mph - N/A   Clear
4:53 AM 54.0 °F 48.0 °F 80% 30.19 in 10.0 mi Calm Calm - N/A   Clear
5:53 AM 50.0 °F 48.0 °F 93% 30.20 in 10.0 mi Calm Calm - N/A   Clear
6:53 AM 50.0 °F 46.9 °F 89% 30.21 in 10.0 mi Calm Calm - N/A   Clear
7:53 AM 52.0 °F 48.9 °F 89% 30.22 in 10.0 mi Calm Calm - N/A   Clear
8:53 AM 59.0 °F 45.0 °F 60% 30.22 in 10.0 mi East 4.6 mph - N/A   Clear
9:53 AM 64.0 °F 37.9 °F 38% 30.22 in 10.0 mi Variable 3.5 mph - N/A   Clear
10:53 AM 66.9 °F 34.0 °F 30% 30.21 in 10.0 mi SE 5.8 mph - N/A   Clear
11:53 AM 70.0 °F 33.1 °F 26% 30.19 in 10.0 mi SE 9.2 mph - N/A   Clear
12:53 PM 73.0 °F 30.9 °F 21% 30.17 in 10.0 mi South 11.5 mph - N/A   Clear
1:53 PM 75.9 °F 34.0 °F 22% 30.14 in 10.0 mi SE 8.1 mph 19.6 mph N/A   Clear
2:53 PM 78.1 °F 30.9 °F 18% 30.12 in 10.0 mi SE 8.1 mph 17.3 mph N/A   Clear
3:53 PM 78.1 °F 30.9 °F 18% 30.09 in 10.0 mi SE 9.2 mph - N/A   Clear
4:53 PM 79.0 °F 30.9 °F 17% 30.08 in 10.0 mi South 15.0 mph 23.0 mph N/A   Clear
5:53 PM 79.0 °F 34.0 °F 20% 30.09 in 10.0 mi SE 16.1 mph 21.9 mph N/A   Clear
6:53 PM 75.0 °F 34.0 °F 22% 30.10 in 10.0 mi SSE 13.8 mph 23.0 mph N/A   Clear
7:53 PM 72.0 °F 37.9 °F 29% 30.11 in 10.0 mi South 8.1 mph - N/A   Clear
8:53 PM 69.1 °F 37.9 °F 32% 30.12 in 10.0 mi SSE 5.8 mph - N/A   Clear
9:53 PM 66.9 °F 39.9 °F 37% 30.14 in 10.0 mi SE 9.2 mph - N/A   Clear
10:53 PM 64.9 °F 41.0 °F 42% 30.15 in 10.0 mi SE 9.2 mph - N/A   Clear
11:53 PM 64.0 °F 39.0 °F 40% 30.15 in 10.0 mi ESE 11.5 mph - N/A   Clear